Seward, AK

5:35 AM AKDT on April 27, 2017 (GMT -0800)
Seward

Weather History for PAWD - February, 2014

Change the Weather History Date:

Tuesday, February 18, 2014

  Actual Average Record
Temperature  
Mean Temperature 28 °F -  
Max Temperature 33 °F 32 °F 44 °F (1977)
Min Temperature 24 °F 22 °F -1 °F (1954)
Degree Days  
Heating Degree Days 36    
Moisture  
Dew Point 22 °F    
Average Humidity 83    
Maximum Humidity 100    
Minimum Humidity 60    
Precipitation  
Precipitation 0.01 in - - ()
Sea Level Pressure  
Sea Level Pressure 29.24 in    
Wind  
Wind Speed 9 mph (NNW)    
Max Wind Speed 18 mph    
Max Gust Speed 24 mph    
Visibility 5 miles    
Events Fog , Snow    
Averages and records for this station are not official NWS values.
T = Trace of Precipitation, MM = Missing Value Source: NWS Daily Summary

Daily Weather History Graph

Daily Weather History Graph

Search for Another Location

Airport or City:

Trip Planner

Search our weather history database for the weather conditions in past years. The results will help you decide how hot, cold, wet, or windy it might be!

Date:

Astronomy

Feb. 18, 2014 Rise Set
Actual Time 8:27 AM AKST 5:57 PM AKST
Civil Twilight 7:43 AM AKST 6:40 PM AKST
Nautical Twilight 6:55 AM AKST 7:29 PM AKST
Astronomical Twilight 6:06 AM AKST 8:17 PM AKST
Moon 11:14 PM AKST (2/18) 9:00 AM AKST (2/18)
Length of Visible Light 10h 56m
Length of Day
9h 29m
Waning Gibbous, 86% of the Moon is Illuminated
Feb 18
Waning Gibbous
Feb 22
Last Quarter
Feb 28
New
Mar 8
First Quarter
Mar 16
Full

Hourly Weather History & Observations

Time (AKST) Temp. Windchill Dew Point Humidity Pressure Visibility Wind Dir Wind Speed Gust Speed Precip Events Conditions
12:53 AM 25.0 °F 12.2 °F 17.1 °F 72% 29.18 in 10.0 mi North 16.1 mph 23.0 mph N/A   Overcast
1:53 AM 27.0 °F 13.9 °F 17.1 °F 66% 29.17 in 10.0 mi NNW 18.4 mph 24.2 mph N/A   Overcast
3:53 AM 28.0 °F 16.1 °F 19.9 °F 72% 29.14 in 8.0 mi North 16.1 mph 21.9 mph 0.00 in Snow Light Snow
4:53 AM 28.0 °F 17.0 °F 19.9 °F 72% 29.14 in 7.0 mi NNW 13.8 mph - 0.00 in Snow Light Snow
5:53 AM 28.9 °F 16.5 °F 18.0 °F 64% 29.13 in 10.0 mi NW 18.4 mph 24.2 mph 0.00 in   Overcast
6:53 AM 28.9 °F 18.6 °F 19.9 °F 69% 29.14 in 9.0 mi NNW 12.7 mph - 0.00 in Snow Light Snow
7:53 AM 27.0 °F 20.5 °F 21.0 °F 78% 29.15 in 5.0 mi Variable 5.8 mph - 0.00 in Snow Light Snow
8:02 AM 26.6 °F 18.2 °F 21.2 °F 80% 29.14 in 7.0 mi NNE 8.1 mph - 0.00 in Snow Light Snow
8:53 AM 26.1 °F 19.4 °F 21.9 °F 84% 29.17 in 9.0 mi North 5.8 mph - 0.00 in Snow Light Snow
9:07 AM 24.8 °F 16.9 °F 21.2 °F 86% 29.17 in 1.8 mi North 6.9 mph - 0.00 in Snow Light Snow
9:17 AM 26.6 °F 19.1 °F 21.2 °F 80% 29.17 in 2.5 mi NE 6.9 mph - 0.00 in Snow Light Snow
9:26 AM 26.6 °F 20.0 °F 23.0 °F 86% 29.18 in 1.2 mi NE 5.8 mph - 0.00 in Snow Light Snow
9:29 AM 26.6 °F 21.2 °F 23.0 °F 86% 29.18 in 1.0 mi NNE 4.6 mph - 0.00 in Snow Light Snow
9:38 AM 24.8 °F 16.9 °F 23.0 °F 93% 29.18 in 0.5 mi North 6.9 mph - 0.00 in Fog , Snow Snow
9:53 AM 25.0 °F 17.1 °F 23.0 °F 92% 29.19 in 0.5 mi North 6.9 mph - 0.00 in Fog , Snow Snow
10:03 AM 24.8 °F 17.9 °F 23.0 °F 93% 29.18 in 1.0 mi North 5.8 mph - 0.00 in Snow Light Snow
10:10 AM 24.8 °F 17.9 °F 23.0 °F 93% 29.18 in 2.0 mi NNE 5.8 mph - 0.00 in Snow Light Snow
10:22 AM 24.8 °F 19.1 °F 21.2 °F 86% 29.19 in 2.0 mi NNW 4.6 mph - 0.00 in Snow Light Snow
10:27 AM 24.8 °F 20.5 °F 21.2 °F 86% 29.19 in 1.5 mi WNW 3.5 mph - 0.00 in Snow Light Snow
10:32 AM 24.8 °F - 23.0 °F 93% 29.20 in 0.8 mi Calm Calm - 0.00 in Snow Light Snow
10:48 AM 24.8 °F 20.5 °F 24.8 °F 100% 29.21 in 0.2 mi SSW 3.5 mph - 0.00 in Fog , Snow Snow
10:53 AM 26.1 °F - 24.1 °F 92% 29.21 in 0.2 mi Calm Calm - 0.00 in Fog , Snow Snow
11:09 AM 26.6 °F 20.0 °F 24.8 °F 93% 29.22 in 1.2 mi NE 5.8 mph - 0.00 in Snow Light Snow
11:13 AM 26.6 °F 22.6 °F 24.8 °F 93% 29.22 in 2.5 mi NE 3.5 mph - 0.00 in Snow Light Snow
11:21 AM 26.6 °F 22.6 °F 24.8 °F 93% 29.22 in 5.0 mi NNW 3.5 mph - 0.00 in Snow Light Snow
11:43 AM 26.6 °F - 24.8 °F 93% 29.22 in 10.0 mi Calm Calm - 0.00 in   Overcast
11:53 AM 27.0 °F 23.0 °F 24.1 °F 89% 29.22 in 6.0 mi North 3.5 mph - 0.00 in Snow Light Snow
12:28 PM 28.4 °F 24.6 °F 24.8 °F 86% 29.24 in 6.0 mi North 3.5 mph - 0.00 in Snow Light Snow
12:49 PM 32.0 °F 21.2 °F 24.8 °F 75% 29.24 in 10.0 mi SSW 16.1 mph 19.6 mph 0.00 in   Overcast
12:53 PM 32.0 °F 21.6 °F 23.0 °F 69% 29.24 in 10.0 mi SSW 15.0 mph - 0.00 in   Overcast
1:04 PM 33.8 °F 23.9 °F 21.2 °F 60% 29.24 in 10.0 mi South 15.0 mph 19.6 mph N/A   Overcast
1:53 PM 32.0 °F 23.6 °F 24.1 °F 73% 29.26 in 8.0 mi South 10.4 mph 21.9 mph 0.00 in   Overcast
2:53 PM 30.9 °F 22.8 °F 21.0 °F 67% 29.29 in 10.0 mi South 9.2 mph - 0.01 in   Overcast
3:53 PM 30.9 °F 23.5 °F 19.9 °F 64% 29.30 in 10.0 mi South 8.1 mph - N/A   Overcast
4:53 PM 30.0 °F 20.0 °F 18.0 °F 61% 29.31 in 10.0 mi SSW 12.7 mph - N/A   Overcast
5:53 PM 28.9 °F 22.8 °F 18.0 °F 64% 29.31 in 10.0 mi SW 5.8 mph - N/A   Overcast
6:53 PM 28.0 °F 24.2 °F 18.0 °F 66% 29.31 in 10.0 mi SW 3.5 mph - N/A   Overcast
7:53 PM 26.1 °F 21.9 °F 21.0 °F 81% 29.31 in 10.0 mi North 3.5 mph - N/A   Overcast
8:53 PM 24.1 °F 19.7 °F 21.0 °F 88% 29.31 in 10.0 mi North 3.5 mph - N/A   Overcast
9:53 PM 26.1 °F - 21.9 °F 84% 29.32 in 3.0 mi Calm Calm - 0.00 in Snow Light Snow
9:55 PM 26.6 °F - 21.2 °F 80% 29.32 in 2.0 mi Calm Calm - 0.00 in Snow Light Snow
9:59 PM 26.6 °F - 21.2 °F 80% 29.32 in 1.2 mi Calm Calm - 0.00 in Snow Light Snow
10:15 PM 24.8 °F - 21.2 °F 86% 29.32 in 1.0 mi Calm Calm - 0.00 in Snow Light Snow
10:24 PM 24.8 °F - 23.0 °F 93% 29.33 in 0.8 mi Calm Calm - 0.00 in Snow Light Snow
10:39 PM 24.8 °F - 23.0 °F 93% 29.33 in 1.0 mi Calm Calm - 0.00 in Snow Light Snow
10:49 PM 24.8 °F 20.5 °F 23.0 °F 93% 29.33 in 0.8 mi NW 3.5 mph - 0.00 in Snow Light Snow
10:53 PM 25.0 °F - 23.0 °F 92% 29.33 in 0.8 mi Calm Calm - 0.00 in Snow Light Snow
11:08 PM 24.8 °F - 23.0 °F 93% 29.33 in 1.0 mi Calm Calm - 0.00 in Snow Light Snow
11:21 PM 24.8 °F - 23.0 °F 93% 29.34 in 0.8 mi Calm Calm - 0.00 in Snow Light Snow
11:43 PM 24.8 °F - 24.8 °F 100% 29.35 in 1.2 mi Calm Calm - 0.00 in Snow Light Snow
11:50 PM 24.8 °F 20.5 °F 21.2 °F 86% 29.35 in 2.0 mi WNW 3.5 mph - 0.00 in Snow Light Snow
11:53 PM 24.1 °F 19.7 °F 21.0 °F 88% 29.35 in 2.5 mi NW 3.5 mph - 0.00 in Snow Light Snow
11:57 PM 24.8 °F 20.5 °F 21.2 °F 86% 29.35 in 3.0 mi NNW 3.5 mph - 0.00 in Snow Light Snow